sat.trackr.live / text

‹ back to catalog

UNKNOWN

NORAD 87569

UNKNOWN UNKNOWN UNKNOWN

§ Identity

Operator
Country
Launch date
Launch site
Launch vehicle
Mass (kg)
RCS (m²)

External: N2YO · Heavens-Above

§ Orbital elements

Epoch: 2026-05-23T07:58:37.726176Z

Period
113.52 min
Inclination
101.9963°
Eccentricity
0.0055243
Mean motion
12.68546977 rev/d
Perigee alt
1,345.0 km
Apogee alt
1,430.8 km
Semi-major
7,766.0 km
B*
4.0855e-5
RAAN
331.9455°
Arg perigee
296.5310°
Mean anomaly
244.4918°
Rev number
57,895

§ Raw data

UNKNOWN1 87569U          26143.33238109 -.00000041  00000+0  40855-4 0  99912 87569 101.9963 331.9455 0055243 296.5310 244.4918 12.68546977578952

JSON: /api/v1/satellites/87569 · /tle

For live sub-satellite position, see the globe view (requires WebGL).

§ Visibility from observer

Set your observer location to see the next 7 days of passes ≥ 10°. The values pass through the URL so the page stays shareable.

No JS? Fill the form by hand. The geolocation button needs JavaScript.